Location: DARK SKY Beskydy - Park tmavé oblohy, www.darkskybeskydy.cz
(49.4926°N, 18.5016°E)
Time: 01:46:39
(UTC+01:00)

BlueWalker 3 - Pass Details

Date: 05 December 2022
Orbit: 499 x 517 km, 53.2° (Epoch: 06 February)

Event Time Altitude Azimuth Distance (km) Brightness Sun altitude
Rises 17:46:11 0° 290° (WNW) 2,628 6.5 -18.4°
Reaches altitude 10° 17:48:25 10° 294° (WNW) 1,736 5.4 -18.7°
Maximum altitude 17:52:19 62° 16° (NNE) 576 2.0 -19.3°
Enters shadow 17:52:49 56° 55° (NE) 613 2.0 -19.4°
